Showing default

QIANFAN-62, 62792

Orbit data source: Space-Track

QIANFAN-62, 62792 is a Chinese payload satellite in LEO that was launched on Thu, 23 Jan 2025 UTC via a CHANG ZHENG 6A launch vehicle from the Taiyaun Space Center, China (TSC). Payload-class satellites include a variety of spacecraft equipped with specific instruments for various scientific and technological missions. These include communications satellites like Starlink; space stations such as the ISS; scientific satellites like the Hubble; Earth observation satellites from companies like Planet Labs, Umbra, and HawkEye 360; GPS; miniature CubeSats for education and research; and military/defense satellites.

Loading next visibility...
Identifier
62792, 2025-016H
Orbit
LEO
Country
Flag of CNCN / PRC
Related business
Manufacturer
SECM
Mission
Operational Commercial Communications
Bus & Motor
QIANFAN, Unknown motor
Mass
267 kg wet, ~267 kg dry
Launch date (UTC)
2025-01-23 (9 months ago)
Launch vehicle
CHANG ZHENG 6A
Launch site
Taiyaun Space Center, China (TSC)
Object type
Payload
Rocket body
Debris
Shape & HBR
Box + 1 Pan, 1.2 m
Radar Cross Section
13.200 m², Large (>1 m²)

Expand to show TLE details & history
Last TLE update: 1 day ago

TLE from 1 day ago
0 QIANFAN-62
1 62792U 25016H   25306.45193407  .00000076  00000-0  98107-4 0  9991
2 62792  88.9740 107.2694 0017793  99.2868 261.0296 13.50980306 41794
Epoch: 2025-11-02T10:50Z
TLE epoch observation values (Epoch: 2025-11-02T10:50:47.103Z)
Latitude
-0.00006°
Longitude
-97.39433°
Altitude
1,073.697 km
Speed
7.314 km/s
True Right ascension
07h 09m 04s
True Declination
0° 00' 00"
Sunlit
Object was in daylight at epoch
Visualization orbit readout
Latitude
Unknown
Longitude
Unknown
Altitude
Unknown
Speed
Unknown
Apparent Right ascension
Unknown
Apparent Declination
Unknown
Sunlit
N/A
Visualization observer readout
Local Sidereal Time
14:37:02
Azimuth
Unknown
Elevation
Unknown
Doppler factor
Unknown
Orbital elements
Apogee altitude
1,078.95 km
Perigee altitude
1,052.46 km
Semi-major axis
7,443.842 km
Eccentricity
0.00178
Inclination
88.974°
RAAN
107.2694°
Arg. of periapsis
99.2868°
True anomaly
260.82827°
Mean anomaly
261.0296°
Eccentric anomaly
260.92893°
Mean motion
3.37946 °/min
Orbital period
106.53 mins
BSTAR
0.000098107
Loading maneuver chart data...
Computing Atmospheric mass density...
Loading historical data...
Loading historical data...
Loading historical data...
Loading historical data...
Loading historical data...
Loading historical data...
Loading historical data...

Documentation

Showing up to 5 results
|